Volver al catálogo

SES MPOWER-A F1

ActivoComunicacionesMEO
NORAD 54755·PAYLOAD·🇱🇺 Luxembourg

Lanzado Dec 16, 2022 desde Cape Canaveral Space Force Station

Loading…

Próximos Pases (próximas 24 horas)

TLE

ActualizadoSource: CelesTrak SupGP

Época: Sep 13, 2026, 22:59 UTC

1 54755C 22174A   26256.95833333  .00000000  00000+0  00000+0 0  2564
2 54755   0.0431 341.9875 0006935 196.3950 295.7436  5.00114482    11

Sigue SES MPOWER-A F1 en tiempo real con AllMySat

Download on the App Store